sat.trackr.live / text

‹ back to catalog

STARLINK-34267

NORAD 65080 · 2025-167C

PAYLOAD ACTIVE UNKNOWN

§ Identity

Operator
Country
US
Launch date
2025-08-04
Launch site
AFETR
Launch vehicle
Mass (kg)
RCS (m²)

Purposes: comms

External: N2YO · Heavens-Above · Gunter

§ Orbital elements

Epoch: 2026-05-25T01:28:21.633600Z

Period
93.85 min
Inclination
53.1614°
Eccentricity
0.0001221
Mean motion
15.34395604 rev/d
Perigee alt
461.9 km
Apogee alt
463.6 km
Semi-major
6,840.9 km
B*
6.9252e-4
RAAN
29.0654°
Arg perigee
84.9721°
Mean anomaly
275.1421°
Rev number
4,643

§ Raw data

STARLINK-342671 65080U 25167C   26145.06136150  .00023090  00000+0  69252-3 0  99902 65080  53.1614  29.0654 0001221  84.9721 275.1421 15.34395604 46433

JSON: /api/v1/satellites/65080 · /tle

For live sub-satellite position, see the globe view (requires WebGL).

§ Visibility from observer

Set your observer location to see the next 7 days of passes ≥ 10°. The values pass through the URL so the page stays shareable.

No JS? Fill the form by hand. The geolocation button needs JavaScript.